Change the Weather History Date:

Thursday, September 29, 2011

  Actual Average Record
Temperature  
Mean Temperature 68 °F -  
Max Temperature 73 °F 64 °F 77 °F (2010)
Min Temperature 64 °F 50 °F 39 °F (2000)
Cooling Degree Days 4    
Growing Degree Days 18 (Base 50)    
Moisture  
Dew Point 65 °F    
Average Humidity 91    
Maximum Humidity 97    
Minimum Humidity 83    
Precipitation  
Precipitation 0.78 in - - ()
Sea Level Pressure  
Sea Level Pressure 29.75 in    
Wind  
Wind Speed 9 mph (South)    
Max Wind Speed 13 mph    
Max Gust Speed 32 mph    
Visibility 7 miles    
Events Fog , Rain , Thunderstorm    
Averages and records for this station are not official NWS values.
T = Trace of Precipitation, MM = Missing Value Source: NWS Daily Summary

Daily Weather History Graph

Daily Weather History Graph

Search for Another Location

Airport or City:

Trip Planner

Search our weather history database for the weather conditions in past years. The results will help you decide how hot, cold, wet, or windy it might be!

Date:

Astronomy

Sep. 29, 2011 Rise Set
Actual Time 6:34 AM EDT 6:25 PM EDT
Civil Twilight 6:06 AM EDT 6:53 PM EDT
Nautical Twilight 5:34 AM EDT 7:25 PM EDT
Astronomical Twilight 5:01 AM EDT 7:58 PM EDT
Moon 9:18 AM EDT (9/29) 7:32 PM EDT (9/29)
Length of Visible Light 12h 46m
Length of Day
11h 51m
Waxing Crescent, 7% of the Moon is Illuminated
Sep 29
Waxing Crescent
Oct 3
First Quarter
Oct 11
Full
Oct 19
Last Quarter
Oct 26
New

Hourly Weather History & Observations

Time (EDT) Temp. Dew Point Humidity Pressure Visibility Wind Dir Wind Speed Gust Speed Precip Events Conditions
12:52 AM 64.0 °F 60.1 °F 87% 29.97 in 10.0 mi East 12.7 mph - N/A   Mostly Cloudy
1:52 AM 64.9 °F 61.0 °F 87% 29.95 in 10.0 mi ESE 12.7 mph 18.4 mph N/A   Scattered Clouds
2:52 AM 64.9 °F 61.0 °F 87% 29.92 in 9.0 mi East 12.7 mph - 0.00 in Rain Light Rain
4:52 AM 64.9 °F 62.1 °F 90% 29.88 in 5.0 mi ESE 12.7 mph - 0.12 in Rain Light Rain
5:08 AM 64.4 °F 62.6 °F 94% 29.87 in 6.0 mi ESE 12.7 mph 19.6 mph 0.01 in Rain Light Rain
5:37 AM 64.4 °F 62.6 °F 94% 29.86 in 7.0 mi ESE 10.4 mph - 0.01 in   Mostly Cloudy
5:52 AM 64.9 °F 63.0 °F 93% 29.86 in 7.0 mi ESE 9.2 mph - 0.01 in   Mostly Cloudy
6:40 AM 64.4 °F 62.6 °F 94% 29.84 in 7.0 mi East 10.4 mph 17.3 mph N/A   Overcast
6:52 AM 66.0 °F 63.0 °F 90% 29.85 in 7.0 mi ESE 11.5 mph 16.1 mph N/A   Overcast
6:57 AM 66.2 °F 62.6 °F 88% 29.84 in 7.0 mi ESE 10.4 mph - N/A   Overcast
7:52 AM 64.9 °F 63.0 °F 93% 29.84 in 6.0 mi ESE 6.9 mph - N/A   Overcast
8:01 AM 66.2 °F 62.6 °F 88% 29.83 in 6.0 mi ESE 6.9 mph - N/A   Overcast
8:52 AM 66.0 °F 63.0 °F 90% 29.84 in 4.0 mi SE 6.9 mph - N/A   Overcast
9:10 AM 64.4 °F 62.6 °F 94% 29.83 in 2.0 mi SE 5.8 mph - N/A   Overcast
9:33 AM 64.4 °F 62.6 °F 94% 29.82 in 4.0 mi ESE 4.6 mph - N/A   Overcast
10:52 AM 68.0 °F 66.0 °F 93% 29.82 in 8.0 mi SSW 6.9 mph - N/A   Overcast
11:52 AM 69.1 °F 66.0 °F 90% 29.79 in 4.0 mi SSW 4.6 mph - N/A   Overcast
12:52 PM 70.0 °F 66.9 °F 90% 29.77 in 10.0 mi SSW 5.8 mph - N/A   Overcast
1:35 PM 71.6 °F 68.0 °F 88% 29.76 in 10.0 mi SW 5.8 mph - N/A   Overcast
1:52 PM 73.0 °F 68.0 °F 84% 29.75 in 10.0 mi SSW 4.6 mph - N/A   Overcast
2:21 PM 71.6 °F 68.0 °F 88% 29.74 in 10.0 mi SSW 4.6 mph - N/A   Overcast
3:00 PM 73.4 °F 68.0 °F 83% 29.72 in 10.0 mi SSW 3.5 mph - N/A   Mostly Cloudy
3:16 PM 73.4 °F 68.0 °F 83% 29.71 in 10.0 mi Variable 3.5 mph - N/A   Mostly Cloudy
3:52 PM 71.1 °F 66.9 °F 87% 29.71 in 10.0 mi SSE 4.6 mph - N/A   Mostly Cloudy
4:18 PM 69.8 °F 66.2 °F 88% 29.69 in 10.0 mi Variable 6.9 mph - N/A   Overcast
4:52 PM 70.0 °F 66.9 °F 90% 29.68 in 10.0 mi SSE 5.8 mph - N/A   Overcast
5:14 PM 69.8 °F 66.2 °F 88% 29.68 in 10.0 mi South 6.9 mph - N/A   Overcast
5:45 PM 71.6 °F 68.0 °F 88% 29.68 in 10.0 mi SSW 8.1 mph - N/A   Overcast
5:52 PM 71.1 °F 68.0 °F 90% 29.68 in 10.0 mi SSW 9.2 mph - N/A   Overcast
6:43 PM 66.2 °F 64.4 °F 94% 29.66 in 8.0 mi Variable 5.8 mph - N/A   Overcast
6:52 PM 66.0 °F 64.0 °F 93% 29.66 in 8.0 mi Variable 5.8 mph - N/A   Overcast
7:15 PM 66.2 °F 64.4 °F 94% 29.67 in 2.0 mi SW 8.1 mph - 0.10 in Rain , Thunderstorm Thunderstorms and Rain
7:18 PM 66.2 °F 64.4 °F 94% 29.69 in 0.8 mi SW 8.1 mph - 0.30 in Rain , Thunderstorm Heavy Thunderstorms and Rain
7:26 PM 64.4 °F 62.6 °F 94% 29.68 in 0.5 mi WSW 11.5 mph 32.2 mph 0.62 in Fog , Rain Heavy Rain
7:31 PM 64.4 °F 62.6 °F 94% 29.68 in 1.0 mi WSW 10.4 mph 21.9 mph 0.63 in Rain Rain
7:36 PM 64.4 °F 62.6 °F 94% 29.68 in 3.0 mi SW 9.2 mph 17.3 mph 0.63 in Rain Light Rain
7:52 PM 64.9 °F 64.0 °F 97% 29.67 in 4.0 mi SW 6.9 mph - 0.64 in Rain , Thunderstorm Light Rain
8:11 PM 66.2 °F 64.4 °F 94% 29.67 in 10.0 mi SW 5.8 mph - 0.01 in   Overcast
8:35 PM 66.2 °F 64.4 °F 94% 29.67 in 10.0 mi SW 5.8 mph - 0.01 in   Overcast
8:52 PM 66.9 °F 64.9 °F 93% 29.67 in 8.0 mi SW 6.9 mph - 0.01 in   Overcast
9:52 PM 68.0 °F 66.0 °F 93% 29.68 in 9.0 mi SW 5.8 mph - N/A   Overcast
10:08 PM 68.0 °F 66.2 °F 94% 29.67 in 8.0 mi SW 8.1 mph - N/A   Overcast
10:52 PM 69.1 °F 66.0 °F 90% 29.68 in 6.0 mi SW 9.2 mph 18.4 mph N/A   Overcast
11:04 PM 69.8 °F 66.2 °F 88% 29.68 in 6.0 mi SW 6.9 mph - N/A   Overcast
11:42 PM 68.0 °F 66.2 °F 94% 29.69 in 6.0 mi WSW 10.4 mph 17.3 mph N/A   Overcast
11:52 PM 68.0 °F 66.0 °F 93% 29.70 in 6.0 mi SW 9.2 mph 17.3 mph N/A   Scattered Clouds